North Platte, NE

9:23 AM CDT on March 29, 2017 (GMT -0500)
North Platte Regional-Bird

Weather History for KLBF - January, 2015

Change the Weather History Date:

Monday, January 5, 2015

  Actual Average Record
Temperature  
Mean Temperature 18 °F 24 °F  
Max Temperature 38 °F 38 °F 69 °F (2012)
Min Temperature -2 °F 11 °F -22 °F (2004)
Degree Days  
Heating Degree Days 47 41  
Month to date heating degree days 255 205  
Since 1 July heating degree days 2942 2985  
Cooling Degree Days 0 0  
Month to date cooling degree days 0 0  
Year to date cooling degree days 0 0  
Moisture  
Dew Point 5 °F    
Average Humidity 79    
Maximum Humidity 95    
Minimum Humidity 63    
Precipitation  
Precipitation 0.00 in 0.01 in 0.42 in (1955)
Month to date precipitation 0.04 0.06  
Year to date precipitation 0.04 0.06  
Snow  
Snow 0.00 in 0.20 in 4.60 in (1955)
Month to date snowfall 1.2 0.8  
Since 1 July snowfall 10.3 11.6  
Snow Depth 3.00 in    
Sea Level Pressure  
Sea Level Pressure 30.37 in    
Wind  
Wind Speed 9 mph (SSW)    
Max Wind Speed 24 mph    
Max Gust Speed 30 mph    
Visibility 10 miles    
Events      
T = Trace of Precipitation, MM = Missing Value Source: NWS Daily Summary

Daily Weather History Graph

Daily Weather History Graph

Search for Another Location

Airport or City:

Trip Planner

Search our weather history database for the weather conditions in past years. The results will help you decide how hot, cold, wet, or windy it might be!

Date:

Astronomy

Jan. 05, 2015 Rise Set
Actual Time 8:08 AM CST 5:28 PM CST
Civil Twilight 7:37 AM CST 5:59 PM CST
Nautical Twilight 7:02 AM CST 6:33 PM CST
Astronomical Twilight 6:29 AM CST 7:06 PM CST
Moon 6:25 PM CST (1/5) 8:05 AM CST (1/5)
Length of Visible Light 10h 21m
Length of Day
9h 20m
Full, 100% of the Moon is Illuminated
Jan 5
Full
Jan 13
Last Quarter
Jan 20
New
Jan 26
First Quarter
Feb 3
Full

Hourly Weather History & Observations

Time (CST) Temp. Windchill Dew Point Humidity Pressure Visibility Wind Dir Wind Speed Gust Speed Precip Events Conditions
12:53 AM 3.0 °F - -2.0 °F 80% 30.71 in 10.0 mi Calm Calm - N/A   Partly Cloudy
1:53 AM -0.0 °F -7.9 °F -4.0 °F 83% 30.71 in 10.0 mi East 3.5 mph - N/A   Clear
2:53 AM -0.9 °F - -4.0 °F 87% 30.69 in 10.0 mi Calm Calm - N/A   Clear
3:53 AM 1.9 °F -7.6 °F -0.9 °F 88% 30.65 in 10.0 mi SSE 4.6 mph - N/A   Overcast
4:53 AM 6.1 °F -2.8 °F -0.0 °F 76% 30.60 in 10.0 mi SE 4.6 mph - N/A   Overcast
5:53 AM 6.1 °F -5.6 °F -4.0 °F 63% 30.55 in 10.0 mi South 6.9 mph - N/A   Clear
6:53 AM 5.0 °F -8.1 °F -4.0 °F 66% 30.50 in 10.0 mi SE 8.1 mph - N/A   Scattered Clouds
7:02 AM 5.0 °F -8.1 °F -4.0 °F 66% 30.33 in 10.0 mi SE 8.1 mph - N/A   Mostly Cloudy
7:29 AM 6.1 °F -7.8 °F -2.0 °F 69% 30.31 in 10.0 mi SSE 9.2 mph - N/A   Mostly Cloudy
7:53 AM 7.0 °F -7.5 °F -2.0 °F 67% 30.45 in 10.0 mi SSE 10.4 mph - N/A   Overcast
8:53 AM 8.1 °F -6.2 °F -0.9 °F 67% 30.43 in 10.0 mi South 10.4 mph - N/A   Overcast
9:53 AM 9.0 °F -10.0 °F -0.0 °F 67% 30.37 in 10.0 mi South 19.6 mph 25.3 mph N/A   Overcast
10:53 AM 9.0 °F -9.5 °F 1.9 °F 73% 30.31 in 10.0 mi South 18.4 mph - N/A   Overcast
11:53 AM 10.9 °F -5.9 °F 3.9 °F 73% 30.24 in 10.0 mi South 16.1 mph - N/A   Scattered Clouds
12:53 PM 12.9 °F -3.4 °F 5.0 °F 71% 30.18 in 10.0 mi SSW 16.1 mph - N/A   Clear
1:53 PM 15.1 °F 1.1 °F 7.0 °F 70% 30.15 in 10.0 mi SSW 12.7 mph - N/A   Clear
2:53 PM 17.1 °F 3.0 °F 8.1 °F 68% 30.16 in 10.0 mi SW 13.8 mph - N/A   Clear
3:53 PM 17.6 °F 6.4 °F 8.6 °F 68% 30.01 in 10.0 mi WSW 9.2 mph - N/A   Clear
4:53 PM 18.0 °F 6.1 °F 9.0 °F 68% 30.17 in 10.0 mi West 10.4 mph - N/A   Clear
5:53 PM 16.0 °F 8.8 °F 9.0 °F 74% 30.21 in 10.0 mi NNW 4.6 mph - N/A   Clear
6:53 PM 14.0 °F 6.5 °F 9.0 °F 80% 30.25 in 10.0 mi West 4.6 mph - N/A   Clear
7:53 PM 16.0 °F 7.4 °F 10.0 °F 77% 30.27 in 10.0 mi West 5.8 mph - N/A   Scattered Clouds
8:53 PM 15.1 °F 9.4 °F 9.0 °F 77% 30.31 in 10.0 mi Variable 3.5 mph - N/A   Clear
9:48 PM 35.6 °F 25.9 °F 26.6 °F 70% 30.21 in 10.0 mi North 16.1 mph 27.6 mph N/A   Overcast
9:53 PM 35.1 °F 24.8 °F 27.0 °F 72% 30.33 in 10.0 mi NNW 17.3 mph - N/A   Overcast
10:53 PM 25.0 °F 13.1 °F 17.1 °F 72% 30.41 in 10.0 mi North 13.8 mph - N/A   Overcast
11:53 PM 19.0 °F 6.8 °F 12.0 °F 74% 30.45 in 10.0 mi North 11.5 mph - N/A   Partly Cloudy